PhpDig
Rechercher sur le site
afficher résultats
Début de mot  Mot entier  Partie de mot 
Sélectionnez une adresse: Restart

Veuillez renseigner le formulaire de recherche.

97781 searches: 88485 with results, 9296 with no results.
— Total - lists the total number of searches for each query
— Query - lists the various keywords for each search query
— Mode - lists the "and, exact, or" search mode per query
— Links - lists the average number of links found per query
— Time - lists the most recent GMT timestamp of each query
Listing 601 to 620 of 622. Page 31 of 32.
Au total Query Mode Links Temps
128 viola and 8 2021-05-31 14:10:41
136 viole and 24 2021-05-31 13:59:49
267 violon clarinette and 17 2021-05-31 13:54:25
125 viroax and 1 2021-05-31 13:57:05
136 vitriol and 2 2021-05-31 13:54:10
146 vivre and 27 2021-05-31 13:57:05
13 voie humide and 4 2021-05-31 13:56:11
153 volonte and 39 2021-05-31 13:57:07
114 vortex and 3 2021-05-31 13:51:47
42 vraie bible and 4 2021-05-31 13:51:54
151 waco and 1 2021-05-31 13:57:07
118 webcams and 1 2021-05-31 15:50:44
123 woody and 1 2021-05-31 13:57:08
120 woody woodpecker and 1 2021-05-31 13:54:21
54 woody woor or 1 2021-05-31 13:57:09
182 www.fangpo1.com and 30 2021-05-31 13:55:55
122 yeux noirs and 2 2021-05-31 13:57:09
82 yi-king and 14 2021-05-31 13:57:09
330 york and 8 2021-05-31 13:52:34
184 zadith and 3 2021-05-31 13:54:12
<< | < | 28 29 30 31 32 | > | >>
Powered by PhpDig


Powered by PhpDig
Powered by PhpDig